TimeMDT,TemperatureF,Dew PointF,Humidity,Sea Level PressureIn,VisibilityMPH,Wind Direction,Wind SpeedMPH,Gust SpeedMPH,PrecipitationIn,Events,Conditions,WindDirDegrees,DateUTC
12:53 AM,43.0,28.0,56,30.10,10.0,Calm,Calm,-,N/A,,Clear,0,2013-03-15 06:53:00
1:53 AM,45.0,26.1,48,30.07,10.0,South,4.6,-,N/A,,Clear,190,2013-03-15 07:53:00
3:53 AM,48.0,25.0,41,30.03,10.0,SSE,11.5,-,N/A,,Clear,150,2013-03-15 09:53:00
4:53 AM,37.0,26.1,65,30.05,10.0,Calm,Calm,-,N/A,,Clear,0,2013-03-15 10:53:00
5:53 AM,39.9,28.0,63,30.03,10.0,Calm,Calm,-,N/A,,Clear,0,2013-03-15 11:53:00
6:53 AM,41.0,26.1,55,30.04,10.0,Calm,Calm,-,N/A,,Clear,0,2013-03-15 12:53:00
7:53 AM,42.1,28.0,58,30.05,10.0,SE,5.8,-,N/A,,Clear,140,2013-03-15 13:53:00
8:53 AM,42.1,30.0,62,30.08,10.0,Calm,Calm,-,N/A,,Clear,0,2013-03-15 14:53:00
9:53 AM,46.9,33.1,59,30.08,10.0,Calm,Calm,-,N/A,,Clear,0,2013-03-15 15:53:00
10:53 AM,57.0,33.1,40,30.05,10.0,WNW,3.5,-,N/A,,Clear,290,2013-03-15 16:53:00
11:53 AM,64.9,30.9,28,30.02,10.0,Variable,3.5,-,N/A,,Clear,0,2013-03-15 17:53:00
12:53 PM,71.1,24.1,17,30.01,10.0,SSW,10.4,-,N/A,,Clear,210,2013-03-15 18:53:00
1:53 PM,70.0,19.9,15,29.96,10.0,Variable,5.8,19.6,N/A,,Clear,0,2013-03-15 19:53:00
2:53 PM,70.0,24.1,18,29.93,10.0,SSW,15.0,-,N/A,,Clear,210,2013-03-15 20:53:00
3:53 PM,71.1,24.1,17,29.87,10.0,SSW,15.0,23.0,N/A,,Clear,210,2013-03-15 21:53:00
4:53 PM,70.0,24.1,18,29.90,10.0,SSW,12.7,25.3,N/A,,Clear,200,2013-03-15 22:53:00
5:53 PM,66.9,24.1,20,29.91,10.0,SSW,12.7,-,N/A,,Clear,210,2013-03-15 23:53:00
6:53 PM,64.9,24.1,21,29.90,10.0,SSW,12.7,-,N/A,,Clear,210,2013-03-16 00:53:00
7:53 PM,59.0,25.0,27,29.92,10.0,SSW,8.1,-,N/A,,Clear,200,2013-03-16 01:53:00
8:53 PM,52.0,27.0,38,29.94,10.0,SW,5.8,-,N/A,,Clear,230,2013-03-16 02:53:00
9:53 PM,54.0,25.0,33,29.91,10.0,Calm,Calm,-,N/A,,Clear,0,2013-03-16 03:53:00
10:53 PM,54.0,25.0,33,29.88,10.0,SSE,6.9,-,N/A,,Clear,150,2013-03-16 04:53:00
11:53 PM,54.0,24.1,31,29.86,10.0,SSE,8.1,-,N/A,,Clear,150,2013-03-16 05:53:00